Météo par heure à Juchitepec de Mariano Riva Palacio

Ce jour, 16 Juin, Mercredi

Heure Température Précipitation Vent Pression Humidité
00:00 +12°C° 0 mm 3 m/s 564 mmHg 82%
01:00 +12°C° 0 mm 3 m/s 563 mmHg 80%
02:00 +11°C° 0 mm 3 m/s 562 mmHg 79%
03:00 +11°C° 0 mm 3 m/s 562 mmHg 77%
04:00 +10°C° 0 mm 3 m/s 562 mmHg 76%
05:00 +9°C° 0 mm 3 m/s 562 mmHg 75%
06:00 +11°C° 0 mm 3 m/s 563 mmHg 70%
07:00 +14°C° 0 mm 2 m/s 564 mmHg 64%
08:00 +16°C° 0 mm 2 m/s 565 mmHg 58%
09:00 +17°C° 0 mm 2 m/s 565 mmHg 52%
10:00 +19°C° 0 mm 2 m/s 566 mmHg 45%
11:00 +21°C° 0 mm 2 m/s 566 mmHg 39%
12:00 +21°C° 0 mm 2 m/s 565 mmHg 39%
13:00 +21°C° 0 mm 2 m/s 565 mmHg 39%
14:00 +23°C° 0 mm 2 m/s 565 mmHg 40%
15:00 +20°C° 0 mm 2 m/s 564 mmHg 47%
16:00 +19°C° 0 mm 2 m/s 564 mmHg 54%
17:00 +18°C° 0 mm 2 m/s 563 mmHg 62%
18:00 +17°C° 0.1 mm 2 m/s 563 mmHg 65%
19:00 +16°C° 0.1 mm 2 m/s 564 mmHg 68%
20:00 +15°C° 0.1 mm 2 m/s 564 mmHg 72%
21:00 +15°C° 0 mm 2 m/s 564 mmHg 73%
22:00 +14°C° 0 mm 2 m/s 564 mmHg 75%
23:00 +14°C° 0 mm 2 m/s 564 mmHg 76%

Demain, 17 Juin, Jeudi

Heure Température Précipitation Vent Pression Humidité
00:00 +14°C° 0 mm 2 m/s 563 mmHg 77%
01:00 +13°C° 0 mm 2 m/s 563 mmHg 77%
02:00 +13°C° 0 mm 2 m/s 562 mmHg 78%
03:00 +12°C° 0 mm 2 m/s 562 mmHg 79%
04:00 +12°C° 0 mm 2 m/s 562 mmHg 80%
05:00 +10°C° 0 mm 2 m/s 562 mmHg 81%
06:00 +13°C° 0 mm 2 m/s 563 mmHg 73%
07:00 +15°C° 0 mm 2 m/s 563 mmHg 64%
08:00 +18°C° 0 mm 1 m/s 564 mmHg 56%
09:00 +19°C° 0 mm 1 m/s 565 mmHg 53%
10:00 +21°C° 0 mm 1 m/s 565 mmHg 49%
11:00 +21°C° 0 mm 2 m/s 565 mmHg 45%
12:00 +21°C° 0.2 mm 1 m/s 565 mmHg 49%
13:00 +21°C° 0.2 mm 1 m/s 564 mmHg 53%
14:00 +20°C° 0.2 mm 1 m/s 563 mmHg 57%
15:00 +19°C° 0.4 mm 1 m/s 563 mmHg 61%
16:00 +19°C° 0.4 mm 1 m/s 563 mmHg 65%
17:00 +18°C° 0.4 mm 1 m/s 562 mmHg 69%
18:00 +16°C° 0.4 mm 1 m/s 563 mmHg 72%
19:00 +16°C° 0.4 mm 1 m/s 563 mmHg 75%
20:00 +15°C° 0.4 mm 2 m/s 563 mmHg 78%
21:00 +15°C° 0.3 mm 1 m/s 563 mmHg 79%
22:00 +15°C° 0.3 mm 1 m/s 563 mmHg 81%
23:00 +15°C° 0.3 mm 1 m/s 563 mmHg 82%

Après-demain, 18 Juin, Vendredi

Heure Température Précipitation Vent Pression Humidité
00:00 +14°C° 0.2 mm 1 m/s 563 mmHg 83%
01:00 +14°C° 0.2 mm 1 m/s 562 mmHg 83%
02:00 +14°C° 0.2 mm 1 m/s 562 mmHg 84%
03:00 +14°C° 0.1 mm 1 m/s 562 mmHg 84%
04:00 +13°C° 0.1 mm 1 m/s 562 mmHg 84%
05:00 +13°C° 0.1 mm 1 m/s 562 mmHg 85%
06:00 +14°C° 0 mm 1 m/s 563 mmHg 78%
07:00 +16°C° 0 mm 1 m/s 564 mmHg 72%
08:00 +18°C° 0 mm 1 m/s 564 mmHg 66%
09:00 +19°C° 0.3 mm 1 m/s 564 mmHg 64%
10:00 +19°C° 0.3 mm 2 m/s 565 mmHg 62%
11:00 +19°C° 0.3 mm 2 m/s 565 mmHg 61%
12:00 +18°C° 0.7 mm 2 m/s 564 mmHg 69%
13:00 +17°C° 0.7 mm 2 m/s 563 mmHg 77%
14:00 +15°C° 0.7 mm 2 m/s 562 mmHg 85%
15:00 +15°C° 0.6 mm 2 m/s 562 mmHg 86%
16:00 +15°C° 0.6 mm 1 m/s 562 mmHg 87%
17:00 +14°C° 0.6 mm 1 m/s 562 mmHg 88%
18:00 +14°C° 0.9 mm 1 m/s 563 mmHg 89%
19:00 +14°C° 0.9 mm 1 m/s 563 mmHg 90%
20:00 +13°C° 0.9 mm 0 m/s 563 mmHg 90%
21:00 +13°C° 0.5 mm 0 m/s 563 mmHg 91%
22:00 +13°C° 0.5 mm 1 m/s 564 mmHg 92%
23:00 +13°C° 0.5 mm 1 m/s 564 mmHg 92%

19 Juin, Samedi

Heure Température Précipitation Vent Pression Humidité
00:00 +13°C° 0.1 mm 1 m/s 563 mmHg 92%
01:00 +13°C° 0.1 mm 1 m/s 563 mmHg 92%
02:00 +13°C° 0.1 mm 1 m/s 563 mmHg 91%
03:00 +13°C° 0.1 mm 1 m/s 563 mmHg 92%
04:00 +13°C° 0.1 mm 1 m/s 563 mmHg 92%
05:00 +13°C° 0.1 mm 1 m/s 563 mmHg 93%
06:00 +14°C° 0.1 mm 1 m/s 564 mmHg 91%
07:00 +14°C° 0.1 mm 1 m/s 564 mmHg 90%
08:00 +14°C° 0.1 mm 2 m/s 565 mmHg 88%
09:00 +16°C° 0.2 mm 2 m/s 565 mmHg 83%
10:00 +17°C° 0.2 mm 2 m/s 565 mmHg 77%
11:00 +18°C° 0.2 mm 2 m/s 565 mmHg 72%
12:00 +18°C° 0.4 mm 2 m/s 565 mmHg 73%
13:00 +18°C° 0.4 mm 3 m/s 565 mmHg 75%
14:00 +18°C° 0.4 mm 3 m/s 565 mmHg 76%
15:00 +17°C° 0.2 mm 3 m/s 565 mmHg 78%
16:00 +17°C° 0.2 mm 2 m/s 564 mmHg 80%
17:00 +16°C° 0.2 mm 2 m/s 564 mmHg 82%
18:00 +15°C° 0.1 mm 2 m/s 564 mmHg 84%
19:00 +15°C° 0.1 mm 1 m/s 564 mmHg 86%
20:00 +14°C° 0.1 mm 1 m/s 564 mmHg 88%
21:00 +13°C° 0 mm 1 m/s 564 mmHg 88%
22:00 +13°C° 0 mm 1 m/s 564 mmHg 88%
23:00 +13°C° 0 mm 1 m/s 564 mmHg 87%

20 Juin, Dimanche

Heure Température Précipitation Vent Pression Humidité
00:00 +13°C° 0 mm 1 m/s 564 mmHg 88%
01:00 +13°C° 0 mm 1 m/s 564 mmHg 88%
02:00 +12°C° 0 mm 1 m/s 563 mmHg 88%
03:00 +12°C° 0 mm 1 m/s 563 mmHg 88%
04:00 +12°C° 0 mm 1 m/s 563 mmHg 88%
05:00 +12°C° 0 mm 1 m/s 564 mmHg 88%
06:00 +14°C° 0 mm 1 m/s 564 mmHg 82%
07:00 +15°C° 0 mm 1 m/s 565 mmHg 76%
08:00 +18°C° 0 mm 1 m/s 566 mmHg 71%
09:00 +18°C° 0 mm 2 m/s 566 mmHg 66%
10:00 +20°C° 0 mm 2 m/s 567 mmHg 62%
11:00 +21°C° 0 mm 3 m/s 567 mmHg 58%
12:00 +21°C° 0.2 mm 3 m/s 567 mmHg 57%
13:00 +21°C° 0.2 mm 3 m/s 567 mmHg 56%
14:00 +22°C° 0.2 mm 3 m/s 566 mmHg 56%
15:00 +21°C° 0.1 mm 3 m/s 566 mmHg 60%
16:00 +20°C° 0.1 mm 2 m/s 565 mmHg 64%
17:00 +19°C° 0.1 mm 2 m/s 565 mmHg 68%
18:00 +18°C° 0.3 mm 2 m/s 565 mmHg 74%
19:00 +18°C° 0.3 mm 1 m/s 565 mmHg 79%
20:00 +15°C° 0.3 mm 1 m/s 565 mmHg 85%
21:00 +15°C° 0.3 mm 1 m/s 565 mmHg 85%
22:00 +15°C° 0.3 mm 1 m/s 565 mmHg 85%
23:00 +15°C° 0.3 mm 1 m/s 565 mmHg 84%

21 Juin, Lundi

Heure Température Précipitation Vent Pression Humidité
00:00 +14°C° 0.3 mm 1 m/s 564 mmHg 85%
01:00 +14°C° 0.3 mm 1 m/s 564 mmHg 85%
02:00 +13°C° 0.3 mm 1 m/s 564 mmHg 86%
03:00 +13°C° 0 mm 1 m/s 564 mmHg 86%
04:00 +13°C° 0 mm 1 m/s 564 mmHg 87%
05:00 +13°C° 0 mm 1 m/s 564 mmHg 88%
06:00 +15°C° 0.1 mm 1 m/s 564 mmHg 83%
07:00 +16°C° 0.1 mm 1 m/s 565 mmHg 78%
08:00 +19°C° 0.1 mm 1 m/s 566 mmHg 73%
09:00 +20°C° 0.4 mm 1 m/s 566 mmHg 69%
10:00 +21°C° 0.4 mm 1 m/s 566 mmHg 65%
11:00 +22°C° 0.4 mm 1 m/s 567 mmHg 61%
12:00 +22°C° 0.8 mm 1 m/s 566 mmHg 61%
13:00 +21°C° 0.8 mm 2 m/s 566 mmHg 61%
14:00 +23°C° 0.8 mm 2 m/s 565 mmHg 61%
15:00 +21°C° 0.8 mm 2 m/s 565 mmHg 66%
16:00 +20°C° 0.8 mm 1 m/s 564 mmHg 72%
17:00 +19°C° 0.8 mm 1 m/s 564 mmHg 77%
18:00 +18°C° 1.7 mm 1 m/s 564 mmHg 80%
19:00 +18°C° 1.7 mm 1 m/s 564 mmHg 83%
20:00 +15°C° 1.7 mm 0 m/s 564 mmHg 87%
21:00 +15°C° 0.6 mm 1 m/s 564 mmHg 86%
22:00 +15°C° 0.6 mm 1 m/s 564 mmHg 86%
23:00 +15°C° 0.6 mm 1 m/s 564 mmHg 86%
Voir plus

Nous avons besoin de votre consentement

Meteoprog et ses fournisseurs de services peuvent stocker et accéder à des données personnelles telles que des cookies, des identifiants d'appareils ou d'autres technologies similaires sur votre appareil et traiter ces données pour personnaliser le contenu et les publicités, ainsi que pour fournir des fonctionnalités de médias sociaux et analyser le trafic.

  • Stocker et/ou accéder à des informations sur votre appareil

    Des cookies, des identifiants d'appareils ou d'autres informations peuvent être stockés ou accessibles sur votre appareil aux fins indiquées ci-dessus.

  • Annonces et contenus personnalisés, mesure des annonces et des contenus, connaissance de l'audience et développement de produits

    Les annonces et le contenu peuvent être personnalisés en fonction d'un profil. D'autres données peuvent être ajoutées pour mieux personnaliser les annonces et le contenu. Les performances des publicités et du contenu peuvent être mesurées. Il est possible d'obtenir des informations sur le public qui a vu les publicités et le contenu. Ces données peuvent être utilisées pour développer ou améliorer l'expérience de l'utilisateur, les systèmes et les logiciels.

En cliquant sur "J'accepte", vous autorisez l'utilisation de cookies, des identifiants d'appareils, des balises web ou d'autres technologies similaires. Vos paramètres peuvent être modifiés dans le navigateur de votre appareil.

Dans certains cas, des intérêts légitimes peuvent être invoqués plutôt qu'un consentement. Vous pouvez en savoir plus à ce sujet dans notre Politique de confidentialité et de cookies.